Volver al catálogo

COSMOS 2491 DEB

ActivoPO
NORAD 57568·DEBRIS·🇷🇺 Russia

Lanzado Dec 25, 2013 desde Plesetsk Cosmodrome

Loading…

Próximos Pases (próximas 24 horas)

TLE

ObsoletoSource: Space-Track

Época: Aug 20, 2026, 06:41 UTC

1 57568U 13076BF  26232.27893600 -.00000497  00000-0 -26540-2 0  9999
2 57568  82.4527  75.8108 0065886  16.4441 343.8769 12.66745257151409

Sigue COSMOS 2491 DEB en tiempo real con AllMySat

Download on the App Store